Weather History for Santa Cruz, Brazil

Change the Weather History Date:

Tuesday, January 28, 2014

  Actual Average Record
Temperature  
Mean Temperature 86 °F -  
Max Temperature 98 °F 91 °F 98 °F (2014)
Min Temperature 73 °F 73 °F 64 °F (2008)
Cooling Degree Days 20    
Growing Degree Days 36 (Base 50)    
Moisture  
Dew Point 68 °F    
Average Humidity 57    
Maximum Humidity 100    
Minimum Humidity 24    
Precipitation  
Precipitation 0.00 in 0.19 in - ()
Sea Level Pressure  
Sea Level Pressure 29.95 in    
Wind  
Wind Speed 5 mph ()    
Max Wind Speed 16 mph    
Max Gust Speed -    
Visibility 5.4 miles    
Events      
Averages and records for this station are not official NWS values.
T = Trace of Precipitation, MM = Missing Value Source: Averaged Metar Reports

Daily Weather History Graph

Daily Weather History Graph

Search for Another Location

Airport:

Trip Planner

Search our weather history database for the weather conditions in past years. The results will help you decide how hot, cold, wet, or windy it might be!

Date:

Astronomy

Jan. 28, 2014 Rise Set
Actual Time 6:32 AM BRST 7:43 PM BRST
Civil Twilight 6:07 AM BRST 8:07 PM BRST
Nautical Twilight 5:39 AM BRST 8:36 PM BRST
Astronomical Twilight 5:09 AM BRST 9:05 PM BRST
Moon 3:55 AM BRST (1/28) 5:33 PM BRST (1/28)
Length of Visible Light 13h 59m
Length of Day
13h 11m
Waning Crescent, 8% of the Moon is Illuminated
Jan 28
Waning Crescent
Jan 30
New
Feb 6
First Quarter
Feb 14
Full
Feb 22
Last Quarter

Hourly Weather History & Observations

Time (BRST) Temp. Heat Index Dew Point Humidity Pressure Visibility Wind Dir Wind Speed Gust Speed Precip Events Conditions
12:00 AM 82.4 °F 88.2 °F 73.4 °F 74% 29.98 in - WSW 4.6 mph - N/A   Clear
1:00 AM 82.4 °F 89.5 °F 75.2 °F 79% 29.98 in - WSW 2.3 mph - N/A   Clear
2:00 AM 82.4 °F 89.5 °F 75.2 °F 79% 29.98 in - Calm Calm - N/A   Clear
3:00 AM 82.4 °F 89.5 °F 75.2 °F 79% 29.98 in - Calm Calm - N/A   Clear
4:00 AM 82.4 °F 89.5 °F 75.2 °F 79% 29.95 in - ESE 2.3 mph - N/A   Clear
5:00 AM 82.4 °F 89.5 °F 75.2 °F 79% 29.95 in - ESE 3.5 mph - N/A   Clear
6:00 AM 73.4 °F - 73.4 °F 100% 29.95 in - ENE 3.5 mph - N/A   Clear
7:00 AM 77.0 °F - 71.6 °F 83% 29.95 in - ENE 4.6 mph - N/A   Clear
8:00 AM 80.6 °F 83.9 °F 69.8 °F 70% 29.98 in - NNE 8.1 mph - N/A   Clear
9:00 AM 86.0 °F 88.2 °F 66.2 °F 51% 30.01 in - North 13.8 mph - N/A   Clear
10:00 AM 87.8 °F 90.4 °F 66.2 °F 49% 30.01 in - North 16.1 mph - N/A   Clear
11:00 AM 91.4 °F 93.2 °F 64.4 °F 41% 30.01 in - North 16.1 mph - N/A   Clear
12:00 PM 93.2 °F 94.1 °F 62.6 °F 36% 30.01 in - NNE 11.5 mph - N/A   Clear
1:00 PM 95.0 °F 96.0 °F 62.6 °F 34% 29.98 in 6.2 mi North 11.5 mph - N/A   Partly Cloudy
2:00 PM 96.8 °F 97.1 °F 60.8 °F 30% 29.95 in 6.2 mi North 9.2 mph - N/A   Partly Cloudy
3:00 PM 98.6 °F 97.2 °F 55.4 °F 24% 29.92 in 6.2 mi NE 3.5 mph - N/A   Partly Cloudy
4:00 PM 95.0 °F 98.5 °F 66.2 °F 39% 29.92 in 6.2 mi SE 13.8 mph - N/A   Partly Cloudy
5:00 PM 91.4 °F 94.0 °F 66.2 °F 43% 29.89 in 2.5 mi SSE 11.5 mph - N/A   Smoke
6:00 PM 89.6 °F 91.1 °F 64.4 °F 43% 29.89 in 3.7 mi SE 12.7 mph - N/A   Partly Cloudy
7:00 PM 87.8 °F 88.5 °F 62.6 °F 43% 29.89 in 3.7 mi SSE 11.5 mph - N/A   Partly Cloudy
8:00 PM 87.8 °F 88.5 °F 62.6 °F 43% 29.92 in 6.2 mi SE 6.9 mph - N/A   Partly Cloudy
9:00 PM 82.4 °F 84.6 °F 66.2 °F 58% 29.92 in 6.2 mi North 3.5 mph - N/A   Partly Cloudy
10:00 PM 82.4 °F 84.6 °F 66.2 °F 58% 29.95 in 6.2 mi Calm Calm - N/A   Partly Cloudy
11:00 PM 80.6 °F 82.7 °F 66.2 °F 61% 29.95 in 6.2 mi Calm Calm - N/A   Partly Cloudy